Regional Weather Roundup
Issued by NWS

Home | Current Version | Previous Version | Graphics & Text | Print | Product List | Glossary On
Versions: 1 2 3 4 5 6 7 8 9 10 11 12 13 14 15 16 17 18 19 20 21 22 23 24 25 26 27 28 29 30 31 32 33 34 35 36 37 38 39 40 41 42 43 44 45 46 47 48 49 50
000
ASUS43 KDTX 241301
RWRMI
MICHIGAN HOURLY REGIONAL WEATHER ROUNDUP
NATIONAL WEATHER SERVICE DETROIT/PONTIAC MI
900 AM EDT SAT JUN 24 2017

NOTE: "FAIR" INDICATES FEW OR NO CLOUDS BELOW 12,000 FEET WITH NO
SIGNIFICANT WEATHER AND/OR OBSTRUCTION TO VISIBILITY.

MIZ047>049-052>055-059>063-066>070-074>076-081>083-241400-
SOUTHEAST LOWER MICHIGAN

CITY           SKY/WX    TMP DP  RH WIND       PRES   REMARKS
ADRIAN         SUNNY     66  56  70 NW9       29.88R
ALMA           SUNNY     65  56  72 W7        29.83S
ANN ARBOR      SUNNY     67  58  72 W10       29.85R
BAD AXE        SUNNY     66  53  62 W6        29.81R
CARO           SUNNY     65  58  78 SW6       29.82R
DETROIT CITY   SUNNY     69  57  65 W8        29.83R
DETROIT        MOSUNNY   68  57  68 W9        29.85R
FLINT          SUNNY     65  56  72 W9        29.84R
GROSSE ILE     SUNNY     68  57  67 NW6       29.83R
HILLSDALE      SUNNY     64  54  68 W10       29.88R
HOWELL         SUNNY     66  53  63 W8        29.84S

CITY           SKY/WX    TMP DP  RH WIND       PRES   REMARKS
JACKSON        SUNNY     66  55  67 W7        29.86R
LAMBERTVILLE   SUNNY     67  57  69 NW7       29.86R
LANSING        SUNNY     69  54  58 W8        29.85R
LAPEER         FAIR      65  56  72 W6        29.83R
MASON          SUNNY     65  56  72 W7        29.86R
MONROE         SUNNY     68  58  70 W9        29.84S
MT. CLEMENS    SUNNY     68  58  69 W8        29.81R
PONTIAC        MOSUNNY   65  57  75 W9        29.82R
PORT HOPE        N/A     67  52  58 NW7       29.78R
PORT HURON     SUNNY     64  54  68 W3        29.82R
TRI CITIES     SUNNY     65  59  81 SW6       29.82R
MIDLAND        FAIR      67  54  63 W3        29.81R
TROY           SUNNY     67  55  64 W5        29.85R
SAGINAW HB     SUNNY     66  54  63 SW6       29.81R
$$
MIZ043>046-050>051-056>058-064>065-071>073-077>080-241400-
SOUTHWEST LOWER MICHIGAN

CITY           SKY/WX    TMP DP  RH WIND       PRES   REMARKS
BATTLE CREEK   SUNNY     66  57  72 W10       29.88R
BENTON HARBOR  SUNNY     66  55  67 NW13G18   29.90R
BIG RAPIDS     SUNNY     64  53  68 NW8G18    29.83R
COLDWATER      SUNNY     66  57  73 W7        29.89R
FREMONT        FAIR      63  56  77 NW7       29.84S
HOLLAND        MOSUNNY   65  56  72 NW12      29.87R
GRAND RAPIDS   MOSUNNY   66  58  75 W10       29.85R
IONIA          FAIR      66  56  69 W7        29.84S
KALAMAZOO      SUNNY     67  55  65 NW10      29.88R
LUDINGTON      CLOUDY    62  56  82 NW10      29.84R
MARSHALL       SUNNY     66  57  71 W9        29.87R
MOUNT PLEASANT SUNNY     65  53  65 W6        29.81S
MUSKEGON       MOSUNNY   66  56  70 NW10G18   29.85R
SOUTH HAVEN    SUNNY     66  58  75 W9        29.89R
$$
MIZ016>042-241400-
NORTHERN LOWER MICHIGAN

CITY           SKY/WX    TMP DP  RH WIND       PRES   REMARKS
ALPENA         SUNNY     64  53  67 VRB7      29.77S
BEAVER ISLAND  MOSUNNY   59  53  79 NW8       29.79S
BELLAIRE       MOSUNNY   63  53  68 W3        29.79S
CADILLAC       MOSUNNY   64  54  72 W5        29.81S
CHARLEVOIX     MOSUNNY   62  54  75 W7        29.82S
FRANKFORT      CLOUDY    63  54  72 W7        29.82R
GAYLORD        SUNNY     62  51  67 W9        29.79S
GRAYLING       MOSUNNY   63  54  72 W6        29.80S
HARBOR SPRINGS MOSUNNY   61  56  85 SW7       29.79R
HOUGHTON LAKE  MOSUNNY   63  53  70 W9        29.81R
MANISTEE       LGT RAIN  62  56  80 W14       29.83R
OSCODA         SUNNY     67  51  55 W15       29.78R
PELLSTON       SUNNY     62  52  69 W12       29.78S
ROGERS CITY    SUNNY     63  53  68 W7        29.78R
TRAVERSE CITY  PTSUNNY   64  54  69 W7        29.79R
$$
MIZ007>008-015-241400-
EASTERN UPPER MICHIGAN

CITY           SKY/WX    TMP DP  RH WIND       PRES   REMARKS
KINROSS        MOSUNNY   54  49  83 VRB5      29.79R
MACKINAC ISLAN SUNNY     58  54  85 NW7       29.78S
NEWBERRY       SUNNY     54  52  92 N3        29.79S
S. S. MARIE    SUNNY     56  49  77 W6        29.78R
MUNISING         N/A     54  50  86 N9        29.81R
$$
MIZ004>006-011>014-085-241400-
CENTRAL UPPER MICHIGAN

CITY           SKY/WX    TMP DP  RH WIND       PRES   REMARKS
MANISTIQUE     PTSUNNY   58  54  85 NW6       29.79S
ESCANABA       CLOUDY    58  52  80 NW8       29.81S
MENOMINEE      CLOUDY    59  54  83 VRB3      29.84R
SAWYER-GWINN   PTSUNNY   59  50  72 N7        29.82R
$$
MIZ001>003-009>011-084-241400-
WESTERN UPPER MICHIGAN

CITY           SKY/WX    TMP DP  RH WIND       PRES   REMARKS
IRON MOUNTAIN  CLOUDY    59  52  77 NW6       29.82S
HOUGHTON       LGT RAIN  53  50  89 W8        29.82R
COPPER HARBOR    N/A     54  52  93 N7        29.81R
IRONWOOD       CLOUDY    54  50  86 W14       29.87S
$$

ABBREVIATIONS USED IN REMARKS
   TC - TEMPERATURE IN CELSIUS
  WCI - WIND CHILL INDEX
   HX - HEAT INDEX
  VSB - VISIBILITY





USA.gov is the U.S. government's official web portal to all federal, state and local government web resources and services.